DECAYED

STARLINK-1076, 44959 (Decayed)

Orbit data source: Space-Track

STARLINK-1076, 44959 was a payload satellite owned by SpaceX/Seattle (US) in LEO that was launched on Tue, 07 Jan 2020 UTC via an FALCON 9 launch vehicle from the Air Force Eastern Test Range (AFETR). Payload-class satellites include a variety of spacecraft equipped with specific instruments for various scientific and technological missions. These include communications satellites like Starlink; space stations such as the ISS; scientific satellites like the Hubble; Earth observation satellites from companies like Planet Labs, Umbra, and HawkEye 360; GPS; miniature CubeSats for education and research; and military/defense satellites.

Not visible in the next 10 days
Identifier
44959, 2020-001AX
Orbit
Decayed
Country
Flag of USUS
Related business
Manufacturer
SpaceX/Seattle
Mission
Decayed Commercial Communications
Bus & Motor
STARLINK, Unknown motor
Mass
260 kg wet, ~248 kg dry
Launch date (UTC)
2020-01-07 (6 years ago)
Launch vehicle
FALCON 9
Launch site
Air Force Eastern Test Range (AFETR)
Object type
Payload
Rocket body
Debris
Shape & HBR
Box + 1 Pan, 10.1 m
Radar Cross Section
13.562 m², Large (>1 m²)

Expand to show TLE details & history
Last TLE update: 1 year ago

TLE from 1 year ago
0 STARLINK-1076
1 44959U 20001AX  25081.30697606  .02720224  11914-4  10116-2 0  9997
2 44959  53.0346  35.0984 0002169 136.6370 342.8903 16.23779155288022
Epoch: 2025-03-22T07:22Z
TLE epoch observation values (Epoch: 2025-03-22T07:22:02.731Z)
Latitude
44.19419°
Longitude
-122.14773°
Altitude
212.408 km
Speed
7.786 km/s
True Right ascension
11h 13m 40s
True Declination
44° 00' 29"
Sunlit
Object was in full shadow at epoch
Visualization orbit readout
Latitude
Unknown
Longitude
Unknown
Altitude
Unknown
Speed
Unknown
Apparent Right ascension
Unknown
Apparent Declination
Unknown
Sunlit
N/A
Visualization observer readout
Local Sidereal Time
21:49:47
Azimuth
Unknown
Elevation
Unknown
Doppler factor
Unknown
Orbital elements
Apogee altitude
211.027 km
Perigee altitude
208.17 km
Semi-major axis
6,587.736 km
Eccentricity
0.00022
Inclination
53.0346°
RAAN
35.0984°
Arg. of periapsis
136.637°
True anomaly
342.88299°
Mean anomaly
342.8903°
Eccentric anomaly
342.88664°
Mean motion
4.05919 °/min
Orbital period
88.69 mins
BSTAR
0.0010116
Loading maneuver chart data...
Computing Atmospheric mass density...

Documentation

Showing up to 5 results
|